Location: Caribou
(46.8667°N, 68.0167°W)
Time: 02:54:18
(UTC-04:00)

Daily predictions for brighter satellites

Satellite Brightness Start Highest point End
(mag) Time Altitude Azimuth Time Altitude Azimuth Time Altitude Azimuth
Coronas F rocket 4.2 00:04:33 11° ENE 00:04:33 11° ENE 00:05:01 10° ENE
Cosmos 1709 Rocket 4.3 00:02:30 25° SSW 00:06:03 61° WNW 00:12:08 10° N
Lacrosse 4 Rocket 1.5 00:03:47 10° NNW 00:08:12 84° ENE 00:09:38 43° SE
Cosmos 2221 Rocket 4.1 00:05:22 10° NNW 00:09:48 50° W 00:11:13 36° SW
Landsat 5 3.6 00:14:14 46° S 00:15:30 79° WSW 00:20:04 10° NNW
Cosmos 2227 Rocket 2.7 00:12:57 19° SW 00:16:57 57° WNW 00:22:33 10° NNE
Cosmos 2333 Rocket 3.5 00:12:22 10° NW 00:17:13 29° WSW 00:19:13 23° SW
CZ-4B R/B 1.6 00:17:32 56° SW 00:17:52 59° W 00:21:19 10° NNW
Cosmos 1703 Rocket 4.5 00:14:10 10° NNW 00:18:12 38° W 00:19:26 31° SW
H-2A R/B 2.5 00:15:29 10° N 00:19:36 75° WNW 00:20:52 44° SSW
Cosmos 1048 Rocket 4.2 00:15:51 10° NNW 00:21:08 60° WSW 00:23:00 38° SSW
Cosmos 1125 Rocket 3.6 00:19:00 33° SSW 00:21:28 79° WNW 00:26:49 10° NNE
Aureole 2 Rocket 2.6 00:22:13 10° NNW 00:25:11 52° ENE 00:25:21 51° E
SL-16 R/B 2.4 00:19:58 10° NNW 00:25:34 59° WSW 00:27:38 37° S
Okean 1-7 3.6 00:23:47 10° NNW 00:27:54 46° W 00:28:55 38° SW
USA 234 3.7 00:22:08 10° ESE 00:28:34 64° NNE 00:35:02 10° NW
Cosmos 2263 Rocket 4.5 00:28:10 10° E 00:28:43 10° E 00:29:16 10° E
NOSS 2-3 (C) 4.2 00:34:08 41° S 00:35:37 55° ESE 00:41:16 10° NE
Cosmos 2184 Rocket 4.0 00:33:12 33° SSW 00:36:10 81° W 00:42:25 10° N
COSMOS 2455 3.2 00:30:33 10° NW 00:36:21 50° WSW 00:38:28 35° SSW
Cosmos 1689 Rocket 3.4 00:37:09 33° W 00:37:09 33° W 00:40:10 10° NNW
Cosmos 1674 Rocket 3.8 00:34:30 10° N 00:38:54 63° E 00:40:17 41° SE
Cosmos 1607 4.3 00:36:12 10° NNW 00:42:18 60° NE 00:47:43 13° SE
SeaSat 1 4.3 00:41:22 15° WSW 00:42:19 16° WSW 00:45:16 10° WNW
FALCON 9 R/B 3.9 00:35:24 10° W 00:42:43 22° SW 00:42:43 22° SW
Meteor 2-6 Rocket 4.5 00:38:53 10° N 00:44:38 69° ENE 00:47:34 31° SSE
Cosmos 1932 4.5 00:38:17 10° NW 00:44:42 90° WSW 00:48:40 25° SE
Cosmos 2297 Rocket 2.9 00:41:00 19° SW 00:44:49 49° WNW 00:50:20 10° NNE
Cosmos 374 Rocket 4.4 00:45:39 10° NW 00:49:31 72° SW 00:50:47 45° SSE
Cosmos 2341 Rocket 4.4 00:47:30 30° SSE 00:50:36 57° E 00:56:50 10° NNE
Cosmos 1943 4.1 00:46:47 10° NNW 00:52:16 45° NE 00:57:08 13° SE
Cosmos 2219 Rocket 4.4 00:51:49 10° W 00:52:39 10° W 00:53:29 10° WSW
MOS 1-B Rocket 3.9 00:50:57 35° S 00:53:27 69° WSW 00:59:03 10° NNW
Helios 1A Rocket 3.3 00:51:40 10° N 00:55:45 56° WNW 00:57:02 38° SW
Cosmos 1908 Rocket 4.2 00:54:48 34° SE 00:56:02 43° E 01:00:09 10° NNE
NOSS 2-3 (D) 4.0 00:54:42 39° SSW 00:56:39 76° SE 01:02:29 10° NE
CZ-2C R/B 3.3 00:55:31 32° SSE 00:58:23 82° ENE 01:04:05 10° NNW
CZ-2C R/B 2.5 00:53:27 10° NNE 00:58:45 88° ESE 01:00:49 38° SSW
Cosmos 1603 3.6 00:53:13 10° NNW 00:58:55 80° WSW 01:01:31 34° SSE
Cosmos 44 Rocket 3.4 00:58:52 40° SSW 01:00:42 70° ESE 01:05:57 10° NE
Meteor 1-10 Rocket 4.3 00:56:29 10° NNW 01:02:25 75° W 01:05:04 35° S
Cosmos 921 Rocket 3.5 01:02:31 37° SE 01:03:25 43° ESE 01:07:24 10° NNE
Cosmos 1606 3.0 01:01:30 10° N 01:05:19 62° E 01:06:18 44° SE
Cosmos 372 Rocket 4.4 01:03:04 29° SW 01:05:37 57° WNW 01:10:49 10° NNE
Sich 1 Rocket 3.6 01:05:36 44° S 01:06:56 74° E 01:11:27 10° NNE
BREEZE-M DEB (TANK) 2.4 01:01:07 10° WNW 01:07:17 52° SW 01:07:21 51° SSW
Meteor 2-3 Rocket 4.4 01:05:45 27° SW 01:08:39 48° WNW 01:14:13 10° N
ASTEX 1 4.5 01:05:07 10° N 01:09:32 35° WNW 01:11:38 24° WSW
Meteor 2-10 Rocket 4.0 01:04:25 10° NNW 01:09:45 53° W 01:11:57 34° SSW
Cosmos 962 Rocket 4.5 01:07:10 33° S 01:10:06 76° E 01:16:13 10° NNE
ERBS 3.1 01:09:15 31° W 01:10:35 51° NNW 01:14:00 10° NE
Cosmos 2084 Rocket 3.5 01:16:49 46° SE 01:17:11 48° SE 01:20:52 10° NE
Cosmos 2251 Rocket 3.9 01:12:30 10° NNW 01:17:39 49° WSW 01:19:22 36° SSW
SL-8 Rocket 4.4 01:15:19 26° SSE 01:18:45 55° E 01:24:55 10° NNE
PSLV R/B 3.8 01:18:20 48° S 01:19:21 72° WSW 01:23:26 10° NNW
Cosmos 1238 Rocket 2.8 01:19:02 10° NNW 01:23:33 75° W 01:24:29 50° SSW
ATLAS 2AS CENTAUR R/B 3.7 01:17:27 10° WSW 01:24:59 52° NW 01:32:56 10° NE
Cosmos 1892 3.8 01:25:17 29° WSW 01:26:13 33° WNW 01:29:42 10° N
Cosmos 1867 4.5 01:21:57 10° NNW 01:27:18 49° NE 01:32:35 10° ESE
Cosmos 1782 3.4 01:24:32 10° NNW 01:28:17 40° W 01:28:58 37° WSW
Cosmos 1733 Rocket 4.0 01:29:42 28° WSW 01:31:17 38° WNW 01:35:30 10° N
Coronas F rocket 3.0 01:35:40 24° WNW 01:35:40 24° WNW 01:37:51 10° NNW
Cosmos 1242 Rocket 4.3 01:34:50 10° NNE 01:37:52 27° ENE 01:40:00 15° ESE
BREEZE-M DEB (TANK) 3.8 01:21:48 10° WSW 01:38:20 76° SSE 01:42:35 10° ENE
Cosmos 1340 Rocket 4.1 01:37:51 24° WSW 01:39:06 29° WNW 01:42:34 10° N
Cosmos 2366 rocket 4.3 01:36:14 24° SSE 01:39:53 57° E 01:45:56 10° NNE
RESURS DK-1 4.4 01:39:44 15° SE 01:41:11 18° ESE 01:44:02 10° ENE
Cosmos 1378 Rocket 3.7 01:38:32 10° NNW 01:42:51 56° W 01:44:13 38° SSW
Lacrosse 4 Rocket 3.7 01:44:32 10° W 01:45:57 12° W 01:45:57 12° W
ATLAS 3B R/B 4.0 01:42:11 10° WNW 01:46:57 20° WSW 01:48:24 19° WSW
USA 238 DEB 4.2 01:40:30 10° NW 01:47:02 43° WSW 01:50:17 27° SSW
CZ-4C R/B 2.8 01:40:06 10° NW 01:47:07 78° SW 01:54:51 10° SSE
Meteor 2-13 Rocket 4.4 01:43:50 30° S 01:47:07 86° W 01:53:17 10° N
USA 238 4.1 01:40:36 10° NW 01:47:08 43° WSW 01:50:25 27° S
Tiangong 1 3.5 01:52:37 13° ESE 01:52:37 13° ESE 01:53:02 10° ESE
Okean 2 Rocket 3.1 01:49:33 35° S 01:51:26 84° E 01:55:59 10° N
Okean 3 3.7 01:49:51 10° NNW 01:54:05 56° W 01:55:32 36° SSW
Cosmos 1727 Rocket 4.1 01:50:01 10° N 01:56:19 79° E 02:00:48 20° SSE
Cosmos 1825 2.4 01:58:09 39° SW 01:59:18 59° WNW 02:03:04 10° N
ERS-2 3.6 01:56:48 10° NE 02:00:05 29° E 02:01:52 20° SE
Meteor 1-27 Rocket 4.4 01:55:28 10° NNW 02:00:59 42° W 02:03:41 26° SW
Cosmos 1782 Rocket 3.7 02:02:20 33° SW 02:04:06 61° WNW 02:08:28 10° N
Meteor 2-8 Rocket 4.5 02:00:13 10° N 02:06:20 83° E 02:10:56 18° SSE
Cosmos 864 Rocket 4.5 02:02:34 25° S 02:06:25 84° E 02:12:36 10° N
COSMOS 2406 4.3 02:01:48 10° NNW 02:07:24 46° NE 02:12:56 10° SE
CZ-2D R/B 4.5 02:05:12 10° NE 02:08:29 16° E 02:11:46 10° SE
Cosmos 1862 4.2 02:10:02 27° WSW 02:11:29 37° WNW 02:15:15 10° N
PSLV R/B 3.5 02:07:16 10° N 02:11:31 74° WNW 02:13:26 31° SSW
Cosmos 2263 Rocket 2.3 02:08:18 26° S 02:11:33 69° ESE 02:17:13 10° NNE
USA 234 3.4 02:05:24 10° SSE 02:11:43 50° SW 02:18:03 10° WNW
Iridium 4 Rocket 3.3 02:08:09 10° N 02:12:39 77° E 02:15:45 22° S
Cosmos 1408 3.4 02:11:54 30° WSW 02:13:10 40° WNW 02:16:46 10° N
Cosmos 1184 Rocket 2.8 02:18:28 38° SSW 02:19:40 89° WNW 02:23:04 10° N
JB-3 4.3 02:15:56 10° N 02:19:47 70° WNW 02:21:29 31° SSW
Cosmos 44 3.8 02:17:14 22° SW 02:20:42 65° NW 02:26:10 10° NNE
NOSS 3-2 (C) 4.0 02:13:38 10° NW 02:21:01 69° SW 02:28:58 10° SSE
Cosmos 1975 Rocket 4.1 02:20:36 10° NNW 02:24:31 31° W 02:26:06 24° SW
CENTAUR R/B 3.8 02:19:15 10° NW 02:26:43 55° NE 02:34:45 10° ESE
USA 161 3.2 02:25:42 11° SE 02:28:00 30° ENE 02:30:37 10° N
Abrixas rocket 4.0 02:28:06 18° SSE 02:28:22 18° SE 02:30:45 10° E
Meteor 1-18 Rocket 4.2 02:29:25 10° NNW 02:35:04 87° W 02:40:12 13° S
ATLAS 5 CENTAUR R/B 4.5 02:31:01 10° NNW 02:35:58 29° NNE 02:41:14 10° E
Cosmos 1943 4.0 02:31:09 10° NW 02:36:09 32° WSW 02:38:54 21° SSW
Cosmos 1536 Rocket 3.5 02:32:07 10° NNW 02:36:28 71° W 02:39:22 21° S
SL-16 R/B 3.4 02:32:03 10° SE 02:38:02 51° ENE 02:44:03 10° N
Cosmos 1190 Rocket 4.0 02:33:04 10° NNW 02:38:21 90° ENE 02:43:34 10° SSE
IRS-P3 4.3 02:39:53 10° N 02:45:12 65° WNW 02:48:58 19° SSW
Cosmos 1371 Rocket 4.1 02:42:07 21° SSW 02:45:46 79° WNW 02:51:10 10° NNE
NOSS 3-4 (A) 3.6 02:40:58 19° SW 02:45:48 83° NW 02:52:29 10° NE
NOSS 3-4 (C) 3.6 02:41:04 19° SW 02:45:53 83° NW 02:52:34 10° NE
NOSS 3-2 (A) 4.3 02:39:31 10° NW 02:46:30 44° WSW 02:53:55 10° S
Spot 4 Rocket 4.4 02:42:03 10° NNE 02:47:10 59° ESE 02:51:35 14° S
Cosmos 2056 Rocket 3.6 02:43:31 20° SSW 02:47:18 82° ESE 02:52:35 10° NNE
Okean 1-7 Rocket 4.0 02:44:42 10° N 02:49:16 67° E 02:53:49 10° SSE
Elektron 3 4.4 02:46:26 10° NW 02:49:26 51° SW 02:54:18 10° SSE
Cosmos 2151 Rocket 3.8 02:46:53 22° SSW 02:49:34 55° WNW 02:53:59 10° N
SL-24 DEB 4.3 02:52:31 10° N 02:57:06 63° W 03:00:33 17° SSW
Cosmos 407 Rocket 3.4 02:52:02 10° NNW 02:57:12 78° WSW 03:02:22 10° SSE
SL-08 R/B 3.9 02:56:48 18° SSW 03:00:08 41° W 03:04:49 10° NNW
Cosmos 676 Rocket 4.0 02:56:06 10° NNW 03:01:20 87° ENE 03:06:31 10° SSE
Cosmos 909 Rocket 4.3 02:56:26 17° SSW 03:01:34 85° ESE 03:09:10 10° NE
Okean O Rocket 4.1 02:59:16 10° NE 03:02:04 17° E 03:04:52 10° SE
Resurs 1-4 Rocket 3.0 02:59:07 10° NNE 03:04:14 45° E 03:09:18 10° S
Cosmos 2123 Rocket 4.4 02:58:59 10° N 03:05:20 68° E 03:11:37 10° SSE
Cosmos 1821 Rocket 4.2 03:01:08 11° S 03:07:24 81° E 03:13:50 10° N
Meteor 1-13 Rocket 4.4 03:01:45 10° N 03:07:25 80° ENE 03:13:10 10° SSE
IRS-1D 4.0 03:03:24 10° NNE 03:08:30 59° E 03:13:26 10° S
SME Rocket 3.5 03:05:08 10° SSE 03:08:48 58° ENE 03:12:52 10° N
Okean 1 Rocket 3.1 03:05:06 14° S 03:08:54 87° E 03:13:23 10° N
SL-27 R/B 2.5 03:06:53 10° NNW 03:10:32 72° WSW 03:14:10 10° SSE
Cosmos 1867 4.3 03:05:53 10° NW 03:10:43 32° WSW 03:15:30 10° S
BREEZE-M DEB (TANK) 4.2 02:54:05 10° W 03:11:28 73° N 03:15:36 10° E
GP-B 3.4 03:07:19 10° N 03:11:41 54° W 03:15:18 14° SSW
Cosmos 1242 Rocket 4.1 03:10:11 10° NW 03:12:46 20° W 03:14:11 16° WSW
EO 1 Del DPAF 3.4 03:09:47 10° SSE 03:13:41 81° ENE 03:17:36 10° NNW
Okean 1 3.5 03:09:47 10° NNW 03:13:41 53° W 03:17:10 12° S
Meteor 1-20 Rocket 4.4 03:11:56 14° SSW 03:17:03 68° WNW 03:22:52 10° N
RESURS DK-1 2.9 03:15:39 15° SW 03:18:54 49° WNW 03:22:58 10° NNE
AQUA 4.5 03:14:29 10° N 03:18:59 42° WNW 03:22:50 13° SW
NPP 4.4 03:16:24 10° N 03:21:23 39° WNW 03:25:55 12° SW
UNK 3.7 03:18:23 10° SSE 03:23:00 86° WSW 03:27:41 10° NNW
Cosmos 1812 3.5 03:20:38 10° NNW 03:24:11 34° W 03:27:13 13° SSW
ATLAS 2A CENTAUR R/B 4.4 03:19:13 13° SSW 03:25:31 26° SSE 03:49:46 10° ESE
Tiangong 1 2.4 03:24:45 14° WSW 03:26:20 21° SSW 03:28:43 10° SSE
Cosmos 1954 Rocket 4.0 03:25:39 10° NNW 03:30:49 69° WSW 03:35:56 10° S
Cosmos 1633 3.5 03:28:15 10° SSE 03:31:42 45° E 03:35:11 10° NNE
ERS-2 3.7 03:30:47 10° NNW 03:33:46 23° WNW 03:36:43 10° WSW
CZ-4C R/B 4.1 03:30:08 10° WNW 03:34:56 19° WSW 03:39:57 10° SSW
ADEOS 4.1 03:30:16 10° N 03:35:17 48° WNW 03:40:14 10° SW
Meteor 2-14 Rocket 4.5 03:30:17 10° S 03:36:20 87° W 03:42:28 10° N
Okean 2 4.4 03:32:56 10° N 03:36:56 49° ENE 03:40:55 10° SSE
Meteor 2-21 Rocket 4.5 03:31:50 10° SSW 03:37:52 75° W 03:44:00 10° N
BREEZE-M DEB (TANK) 4.4 03:40:09 10° WNW 03:44:57 86° NNE 04:07:12 10° ESE
Cosmos 1025 Rocket 3.0 03:42:19 10° NNW 03:46:34 65° W 03:50:49 10° S
ARIANE 5 R/B 2.7 03:43:07 10° N 03:48:02 58° WNW 03:52:55 10° SSW
CZ-2D R/B 2.2 03:43:44 10° NNE 03:49:10 79° WNW 03:54:38 10° SSW
Cosmos 1356 4.2 03:46:47 10° S 03:50:14 53° E 03:53:44 10° NNE
COSMOS 2406 4.0 03:46:30 10° NW 03:51:32 32° WSW 03:56:33 10° SSW
Cosmos 1844 3.9 03:46:33 10° SSW 03:52:12 73° ESE 03:57:58 10° NNE
COSMOS 2487 2.5 03:49:26 10° NNW 03:53:05 80° WSW 03:56:42 10° SSE
Cosmos 1452 Rocket 3.7 03:48:28 10° SSW 03:53:40 63° WNW 03:58:55 10° NNE
Cosmos 1844 Rocket 2.8 03:48:35 10° SSW 03:54:15 83° WNW 03:59:59 10° NNE
Thor Agena Rocket 4.1 03:49:17 10° SSE 03:54:24 65° ENE 03:59:30 10° N
Cosmos 2263 Rocket 3.8 03:51:23 10° W 03:56:01 25° NW 04:00:39 10° N
USA 161 3.7 03:57:32 10° WSW 03:58:35 12° W 03:59:39 10° WNW
Cosmos 614 Rocket 4.0 03:54:19 10° NNW 03:59:32 88° WSW 04:04:41 10° SSE
